Paganella, Italy

1:47 AM CET on December 05, 2016 (GMT +0100)
Paganella

Weather History for LIVP - August, 2014

Change the Weather History Date:

Thursday, August 21, 2014

  Actual Average Record
Temperature  
Mean Temperature 44 °F -  
Max Temperature 50 °F 54 °F 70 °F (2012)
Min Temperature 37 °F 45 °F 37 °F (2004)
Degree Days  
Heating Degree Days 22    
Moisture  
Dew Point 39 °F    
Average Humidity 83    
Maximum Humidity 100    
Minimum Humidity 54    
Precipitation  
Precipitation 0.00 in - - ()
Sea Level Pressure  
Sea Level Pressure 30.07 in    
Wind  
Wind Speed 12 mph ()    
Max Wind Speed 23 mph    
Max Gust Speed 31 mph    
Visibility 2.3 miles    
Events Fog , Rain    
Averages and records for this station are not official NWS values.
T = Trace of Precipitation, MM = Missing Value Source: Averaged Metar Reports

Daily Weather History Graph

Daily Weather History Graph

Search for Another Location

Airport or City:

Trip Planner

Search our weather history database for the weather conditions in past years. The results will help you decide how hot, cold, wet, or windy it might be!

Date:

Astronomy

Aug. 21, 2014 Rise Set
Actual Time 6:22 AM CEST 8:14 PM CEST
Civil Twilight 5:50 AM CEST 8:46 PM CEST
Nautical Twilight 5:10 AM CEST 9:26 PM CEST
Astronomical Twilight 4:27 AM CEST 10:08 PM CEST
Moon 2:32 AM CEST (8/21) 5:37 PM CEST (8/21)
Length of Visible Light 14h 56m
Length of Day
13h 52m
Waning Crescent, 15% of the Moon is Illuminated
Aug 21
Waning Crescent
Aug 25
New
Sep 2
First Quarter
Sep 9
Full
Sep 16
Last Quarter

Hourly Weather History & Observations

Time (CEST) Temp. Windchill Dew Point Humidity Pressure Visibility Wind Dir Wind Speed Gust Speed Precip Events Conditions
12:00 AM 43 °F - 40 °F 85%  in 0 mi SW 9.2 mph - - Rain Light Rain
1:00 AM 43 °F - 41 °F 88%  in 0 mi NNW 5.8 mph - - Rain Rain
1:55 AM 41.0 °F 33.9 °F 41.0 °F 100% 30.01 in 0.0 mi North 12.7 mph - N/A Fog , Rain Light Rain
2:00 AM 41 °F - 41 °F 98%  in 0 mi North 12.7 mph - - Rain Light Rain
4:55 AM 39.2 °F 30.8 °F 35.6 °F 87% 30.01 in 0.4 mi North 15.0 mph - N/A Fog Fog
5:00 AM 38 °F - 35 °F 86%  in 0 mi North 15.0 mph - - Fog Partial Fog
5:55 AM 37.4 °F 27.8 °F 33.8 °F 87% 30.04 in - North 17.3 mph - N/A   Clear
6:00 AM 37 °F - 34 °F 83%  in 31 mi North 17.3 mph - - Fog Light Fog
6:55 AM 37.4 °F 28.2 °F 33.8 °F 87% 30.04 in - North 16.1 mph - N/A   Clear
7:00 AM 38 °F - 34 °F 80%  in 37 mi North 16.1 mph - -  
7:55 AM 39.2 °F 30.8 °F 35.6 °F 87% 30.04 in - North 15.0 mph - N/A   Clear
8:00 AM 39 °F - 35 °F 80%  in 31 mi North 15.0 mph - -   Partly Cloudy
8:55 AM 39.2 °F 31.2 °F 33.8 °F 81% 30.06 in - NNW 13.8 mph - N/A   Clear
9:00 AM 39 °F - 35 °F 78%  in 37 mi NNW 13.8 mph - -  
9:55 AM 41.0 °F 34.3 °F 32.0 °F 70% 30.06 in - North 11.5 mph - N/A   Clear
10:00 AM 41 °F - 32 °F 62%  in 37 mi North 11.5 mph - -  
10:55 AM 42.8 °F 38.6 °F 32.0 °F 66% 30.09 in 6.2 mi North 6.9 mph - N/A   Partly Cloudy
11:00 AM 43 °F - 32 °F 54%  in 31 mi North 6.9 mph - -   Scattered Clouds
11:55 AM 44.6 °F 40.2 °F 35.6 °F 71% 30.06 in 6.2 mi NE 8.1 mph - N/A   Partly Cloudy
12:00 PM 45 °F - 35 °F 57%  in 31 mi NE 8.1 mph - -   Scattered Clouds
12:55 PM 44.6 °F 38.8 °F 37.4 °F 76% 30.09 in 6.2 mi ESE 11.5 mph - N/A   Scattered Clouds
1:00 PM 45 °F - 38 °F 68%  in 31 mi ESE 11.5 mph - -   Partly Cloudy
1:55 PM 46.4 °F 42.4 °F 39.2 °F 76% 30.12 in 6.2 mi South 8.1 mph - N/A   Scattered Clouds
2:00 PM 47 °F - 39 °F 66%  in 31 mi South 8.1 mph - -   Partly Cloudy
2:55 PM 50.0 °F - 41.0 °F 71% 30.09 in 6.2 mi South 10.4 mph - N/A   Scattered Clouds
3:00 PM 50 °F - 41 °F 63%  in 31 mi South 10.4 mph - -   Partly Cloudy
3:55 PM 48.2 °F - 42.8 °F 82% 30.09 in 6.2 mi South 10.4 mph - N/A   Scattered Clouds
4:00 PM 49 °F - 42 °F 69%  in 31 mi South 10.4 mph - -   Partly Cloudy
4:55 PM 48.2 °F - 44.6 °F 87% 30.09 in 6.2 mi South 13.8 mph - N/A   Scattered Clouds
5:00 PM 48 °F - 44 °F 81%  in 6 mi South 13.8 mph - -   Mostly Cloudy
5:55 PM 46.4 °F 39.5 °F 42.8 °F 87% 30.09 in 6.2 mi South 17.3 mph - N/A   Scattered Clouds
6:00 PM 46 °F - 43 °F 87%  in 6 mi South 17.3 mph - -   Mostly Cloudy
6:55 PM 44.6 °F 37.2 °F 42.8 °F 93% 30.06 in 0.2 mi South 17.3 mph - N/A Fog Fog
7:00 PM 45 °F - 43 °F 88%  in 0 mi South 17.3 mph - - Fog Heavy Fog
7:55 PM 44.6 °F 35.9 °F 44.6 °F 100% 30.06 in 0.0 mi SSW 23.0 mph - N/A Fog Fog
8:00 PM 45 °F - 44 °F 97%  in 0 mi SSW 23.0 mph - - Fog Heavy Fog
8:55 PM 44.6 °F 36.6 °F 44.6 °F 100% 30.06 in 0.0 mi SSW 19.6 mph - N/A Fog Fog
9:00 PM 44 °F - 44 °F 98%  in 0 mi SSW 19.6 mph - - Fog Heavy Fog
9:55 PM 42.8 °F 35.4 °F 42.8 °F 100% 30.06 in 0.0 mi SSW 15.0 mph - N/A Fog Fog
10:00 PM 44 °F - 43 °F 94%  in 0 mi SSW 15.0 mph - - Fog Heavy Fog
10:55 PM 42.8 °F 35.1 °F 42.8 °F 100% 30.09 in 0.0 mi SSW 16.1 mph 27.6 mph N/A Fog Fog
11:00 PM 44 °F - 43 °F 94%  in 0 mi SSW 16.1 mph - - Fog Heavy Fog
11:55 PM 42.8 °F 34.8 °F 39.2 °F 87% 30.09 in 0.4 mi SW 17.3 mph 31.1 mph N/A Fog Fog